OpenBCM V2.0.2 (Linux)

Packet Radio Mailbox

IZ3LSV

[San Dona' di P. JN]

 Login: GUEST





  
LU9DCE > KEPS     07.04.18 18:03l 259 Lines 12883 Bytes #999 (0) @ WW
BID : 36183_LU9DCE
Read: GUEST
Subj: SAT TLE OF 7
Path: IZ3LSV<IK6IHL<IK7NXU<HB9CSR<IW8PGT<CX2SA<HP2BWJ<LU4ECL<LU9DCE
Sent: 180407/1601Z @:LU9DCE.TOR.BA.ARG.SOAM #:36183 [TORTUGUITAS] FBB7.07
From: LU9DCE@LU9DCE.TOR.BA.ARG.SOAM
To  : KEPS@WW


            __    _  _  ___  ____   ___  ____    ____  ____  ____
           (  )  / )( \/ _ \(    \ / __)(  __)  (  _ \(  _ \/ ___)
           / (_/\) \/ (\__  )) D (( (__  ) _)    ) _ ( ) _ (\___ \
           \____/\____/(___/(____/ \___)(____)  (____/(____/(____/
               ESTACION DE PACKET RADIO - BUENOS AIRES (GF05OM)
                   BOLETINES INFORMATIVOS PROGRAMADOS (BIP)
                    LU9DCE@GMX.COM - RF 147070 @ 1200 BAUD
                           telnet lu9dce.dynu.com
             BBS port 6300 / NODE port 3694 / DXCLUSTER port 9000

+------------------------------------------------------------------------------+
OSCAR 7
1 07530U 74089B   18097.48853689 -.00000026  00000-0  11333-3 0  9992
2 07530 101.6796  65.8907 0012444 111.1767  36.7758 12.53631872985737
OSCAR 11 (UoSAT 2)
1 14781U 84021B   18097.15448840  .00000067  00000-0  14442-4 0  9997
2 14781  97.6580 136.3673 0007480 324.5814  35.4902 14.82992600833911
OSCAR 19 (LUSAT)
1 20442U 90005G   18097.40620742  .00000013  00000-0  20856-4 0  9995
2 20442  98.6048  36.3541 0011882   4.9950 355.1350 14.32891560473755
KITSAT B
1 22825U 93061C   18096.85306285  .00000009  00000-0  21513-4 0  9994
2 22825  98.8561  71.7025 0008157 187.5030 172.6031 14.30026165279371
POSAT 1
1 22826U 93061D   18096.88639408  .00000010  00000-0  21428-4 0  9991
2 22826  98.8502  71.7832 0008872 177.4886 182.6342 14.30357329279560
RADIO ROSTO
1 23439U 94085A   18096.51385640 -.00000050 +00000-0 -21274-3 0  9999
2 23439 064.8140 104.7488 0159667 195.0639 328.1700 11.27566875958488
JAS 2
1 24278U 96046B   18097.53776118 -.00000045  00000-0 -64967-5 0  9999
2 24278  98.5238 306.0034 0349437 294.3166  62.1858 13.53082495 68685
TECHSAT 1B
1 25397U 98043D   18096.90611148 +.00000002 +00000-0 +19762-4 0  9995
2 25397 098.6440 038.5472 0000832 165.9709 194.1493 14.23642851025361
ISS (ZARYA)
1 25544U 98067A   18097.53054398  .00002169  00000-0  39867-4 0  9997
2 25544  51.6445  10.9516 0001673 314.5703  29.7941 15.54208808107527
PCSAT
1 26931U 01043C   18096.90045954 -.00000037 +00000-0 +17762-4 0  9997
2 26931 067.0520 053.3491 0006906 282.6075 077.4253 14.30499589862285
SAUDISAT 1C
1 27607U 02058C   18096.56906633 -.00000012 +00000-0 +19078-4 0  9992
2 27607 064.5550 308.9452 0057007 344.9324 015.0077 14.75436026822266
CUTE-1
1 27844U 03031E   18096.96733381 +.00000045 +00000-0 +40215-4 0  9991
2 27844 098.6891 106.6681 0009131 211.8248 148.2379 14.22103936766033
CUBESAT XI 4
1 27848U 03031J   18096.90686223 +.00000032 +00000-0 +34313-4 0  9999
2 27848 098.6978 106.9822 0008868 222.8974 137.1513 14.21709093765904
MOZHAYETS 4
1 27939U 03042A   18097.56701481  .00000070  00000-0  21080-4 0  9998
2 27939  97.9783 238.5718 0013249  18.7416  47.2340 14.66671826776462
CUBESAT XI 5
1 28895U 05043F   18096.89961827 +.00000135 +00000-0 +34684-4 0  9996
2 28895 097.8985 251.2838 0015503 296.6853 063.2762 14.63526895663215
CUTE-1.7+APD II
1 32785U 08021C   18097.51203227  .00000194  00000-0  26758-4 0  9999
2 32785  97.5510 113.0529 0011514 273.2928  86.6972 14.88089709538660
DELFI C3
1 32789U 08021G   18097.21696526  .00001098  00000-0  79618-4 0  9995
2 32789  97.5203 153.8043 0012931 172.5177 187.6245 15.05884561541104
SEEDS
1 32791U 08021J   18097.11145269  .00000240  00000-0  30014-4 0  9995
2 32791  97.5415 117.8657 0011863 253.1012 106.8906 14.90506483538920
YUBELEINY
1 32953U 08025A   18097.53497898  .00000034  00000-0  17273-3 0  9995
2 32953  82.5036  56.6109 0019562   7.7155 352.4222 12.43082608447990
PRISM (HITOMI)
1 33493U 09002B   18097.34475082  .00001145  00000-0  10720-3 0  9995
2 33493  98.1380 356.6943 0014657 184.3701 175.7388 14.96143676499756
KKS-1 (KISEKI)
1 33499U 09002H   18096.89765385 +.00000101 +00000-0 +22966-4 0  9995
2 33499 098.3537 276.3576 0009777 152.8658 207.3062 14.75310898494245
SWISSCUBE
1 35932U 09051B   18097.45464241  .00000138  00000-0  42323-4 0  9992
2 35932  98.5343 246.9564 0008755  71.8389 288.3761 14.56139264453146
BEESAT
1 35933U 09051C   18096.86856038 +.00000108 +00000-0 +35390-4 0  9999
2 35933 098.5383 247.8589 0007079 085.2352 274.9653 14.56245321453081
ITUPSAT 1
1 35935U 09051E   18096.88309122 +.00000113 +00000-0 +37073-4 0  9996
2 35935 098.5494 248.1275 0009350 080.1017 280.1234 14.55424878452929
XIWANG-1 (HOPE-1)
1 36122U 09072B   18097.47985312 -.00000044  00000-0 -50841-5 0  9999
2 36122 100.0805 115.4098 0006781 276.3707  83.6635 13.16343921399344
TISAT 1
1 36799U 10035E   18097.30447358  .00000436  00000-0  50454-4 0  9997
2 36799  98.0945 231.6918 0013721  82.9763 277.3014 14.90743786419591
JUGNU
1 37839U 11058B   18096.37679066  .00000319  00000-0  28027-4 0  9999
2 37839  19.9609 112.6901 0018935 174.4829 313.4955 14.12614808335205
SRMSAT
1 37841U 11058D   18096.58043147  .00000288  00000-0  12961-4 0  9995
2 37841  19.9711 159.1831 0012097  64.3145  87.4216 14.10602515334769
M-CUBED/EXP-1 PRIME
1 37855U 11061F   18097.10699645  .00000660  00000-0  42180-4 0  9993
2 37855 101.7240 123.2701 0176887 292.5926  65.6656 15.04242113350963
HORYU 2
1 38340U 12025D   18097.54963435  .00000170  00000-0  33106-4 0  9997
2 38340  98.3714 116.8283 0012914  77.8171 282.4483 14.75524005316698
STRAND 1
1 39090U 13009E   18097.54788235  .00000006  00000-0  17519-4 0  9994
2 39090  98.5290 304.8246 0009878 141.4560 218.7332 14.35018026267692
SOMP
1 39134U 13015E   18096.17769462  .00001066  00000-0  60126-4 0  9998
2 39134  64.8650 359.8134 0020697 219.2802 140.6824 15.18963019273967
BEESAT 3
1 39135U 13015F   18096.74175198 +.00000737 +00000-0 +47488-4 0  9999
2 39135 064.8709 010.4247 0026407 245.5479 114.2891 15.16519440273420
BEESAT 2
1 39136U 13015G   18096.75248272 +.00000681 +00000-0 +45284-4 0  9995
2 39136 064.8711 012.9842 0026891 244.5720 115.2623 15.15993303273378
CUBEBUG 1
1 39153U 13018D   18097.06769873  .00000198  00000-0  32857-4 0  9992
2 39153  97.9763 192.7415 0017291 172.1021 188.0467 14.80366057267073
ZACUBE
1 39417U 13066B   18097.50455176  .00000187  00000-0  29958-4 0  9991
2 39417  97.5947 129.8903 0059787  28.1608 332.2817 14.80903325236338
TRITON 1
1 39427U 13066M   18097.46449281  .00000183  00000-0  36888-4 0  9993
2 39427  97.6401  98.0858 0115359 125.5232 235.6798 14.67631794234205
GOMX 1
1 39430U 13066Q   18097.39380486  .00000170  00000-0  39936-4 0  9993
2 39430  97.6922  79.3940 0151172 193.4987 166.2151 14.59048200232839
HUMSAT D
1 39433U 13066T   18097.21069148  .00000213  00000-0  26486-4 0  9990
2 39433  97.6119 156.0457 0029832 321.1107  38.7966 14.91796870237849
50 SAT
1 39436U 13066W   18097.33388948  .00156723  00000-0  12358-2 0  9997
2 39436  97.7124 228.4228 0001472 260.9970  99.1125 15.70943915242191
CUBEBUG 2
1 39440U 13066AA  18097.01046179  .00000207  00000-0  35718-4 0  9996
2 39440  97.6061 116.4592 0081987  67.2001 293.7844 14.75637470235425
FUNCUBE 1
1 39444U 13066AE  18097.53740778  .00000240  00000-0  36023-4 0  9990
2 39444  97.5957 131.3571 0058809  23.7779 336.6132 14.81673049235191
UWE-3
1 39446U 13066AG  18097.01965991  .00000211  00000-0  34731-4 0  9993
2 39446  97.5990 122.5751 0071392  48.8189 311.9150 14.78171474234609
SPROUT
1 39770U 14029E   18097.52548121  .00000640  00000-0  78029-4 0  9995
2 39770  97.8729 199.1835 0010778  83.3999 276.8462 14.86751151209869
UNISAT 6
1 40012U 14033C   18096.72337798 +.00000185 +00000-0 +35115-4 0  9991
2 40012 097.8188 335.6019 0059904 069.9477 290.8167 14.73787639204178
DUCHIFAT 1
1 40021U 14033M   18097.22309747  .00000314  00000-0  38225-4 0  9999
2 40021  97.9170  15.8135 0014344  55.8810 304.3766 14.90245977206384
QB50P1
1 40025U 14033R   18097.23662288  .00000293  00000-0  37421-4 0  9999
2 40025  97.9073  12.7745 0013845  61.4884 298.7725 14.88670509206237
CHUBUSAT 1
1 40300U 14070C   18097.40036360  .00000755  00000-0  36500-4 0  9991
2 40300  97.3673 176.5995 0021099 146.0894 347.1521 15.21465893189510
NUDT-PHONESAT
1 40900U 15049B   18097.06487144  .00001920  00000-0  89597-4 0  9995
2 40900  97.4433 106.1471 0011752 279.8023  80.1885 15.21010773141106
ZDPS 2A
1 40901U 15049C   18097.50013483  .00000791  00000-0  43441-4 0  9999
2 40901  97.4604 104.9536 0012088 285.5885  74.4014 15.16957289140945
ZDPS 2B
1 40902U 15049D   18097.06849528  .00000773  00000-0  42735-4 0  9993
2 40902  97.4499 102.6689 0012133 283.9743  76.0141 15.16755893140865
XW-2A
1 40903U 15049E   18097.49817482  .00001622  00000-0  42435-4 0  9996
2 40903  97.3924 131.6313 0012569 287.5088  72.4784 15.40210782142921
KAITUO 1A
1 40904U 15049F   18097.48280892  .00000746  00000-0  43505-4 0  9990
2 40904  97.4593 102.3895 0013087 286.2866 226.0175 15.14947425140797
OBJECT G
1 40905U 15049G   18097.49434571  .00000359  00000-0  23414-4 0  9994
2 40905  97.4591 100.5945 0014164 276.2552  83.7066 15.13908262140725
XW-2C
1 40906U 15049H   18097.45510588  .00000596  00000-0  35331-4 0  9998
2 40906  97.4608 102.2470 0013384 275.9748  83.9958 15.15092617140781
XW-2D
1 40907U 15049J   18097.48048327  .00000619  00000-0  36414-4 0  9998
2 40907  97.4580 101.9775 0012736 273.5663  86.4112 15.15236186140797
LILACSAT 2
1 40908U 15049K   18097.07203375  .00000332  00000-0  22157-4 0  9991
2 40908  97.4690 101.0261 0014419 276.2226  83.7362 15.13452122140612
XW-2F
1 40910U 15049M   18097.48361687  .00000926  00000-0  51040-4 0  9992
2 40910  97.4586 103.1682 0013427 269.0197  90.9498 15.16379584140730
XW-2B
1 40911U 15049N   18097.49543124  .00000606  00000-0  35783-4 0  9993
2 40911  97.4617 102.5028 0012650 274.0520  85.9266 15.15182871140698
